This is the latest recevied weather packets stored in our database for station/object IT9CNT. If no packets are shown the sender has not sent any weather packets the latest 1 day(s).
| Time | Temp. | Humidity | Pressure | Rain* | Wind** | Luminosity | Snow |
|---|---|---|---|---|---|---|---|
| 1778024163 | 16.67° C | 77% | 1012.4 hPa | 0 mm | 2.24 m/s, 82° | - | - |
| 1778024103 | 16.67° C | 77% | 1012.1 hPa | 0 mm | 2.24 m/s, 82° | - | - |
| 1778024043 | 16.67° C | 77% | 1012.5 hPa | 0 mm | 2.24 m/s, 82° | - | - |
| 1778023983 | 16.67° C | 77% | 1012.5 hPa | 0 mm | 2.68 m/s, 82° | - | - |
| 1778023923 | 16.67° C | 77% | 1012.4 hPa | 0 mm | 2.68 m/s, 85° | - | - |
| 1778023863 | 16.67° C | 77% | 1012.4 hPa | 0 mm | 2.68 m/s, 87° | - | - |
| 1778023803 | 16.67° C | 77% | 1012.4 hPa | 0 mm | 2.68 m/s, 86° | - | - |
| 1778023743 | 16.67° C | 77% | 1012.6 hPa | 0 mm | 2.68 m/s, 89° | - | - |
| 1778023683 | 16.67° C | 77% | 1012.5 hPa | 0 mm | 2.68 m/s, 90° | - | - |
| 1778023623 | 16.67° C | 76% | 1012.5 hPa | 0 mm | 3.13 m/s, 93° | - | - |
| 1778023563 | 16.67° C | 77% | 1012.5 hPa | 0 mm | 3.13 m/s, 94° | - | - |
| 1778023503 | 16.67° C | 77% | 1012.4 hPa | 0 mm | 2.68 m/s, 92° | - | - |
| 1778023443 | 16.67° C | 76% | 1012.4 hPa | 0 mm | 2.68 m/s, 92° | - | - |
| 1778023383 | 16.67° C | 76% | 1012.5 hPa | 0 mm | 2.68 m/s, 90° | - | - |
| 1778023323 | 16.67° C | 76% | 1012.3 hPa | 0 mm | 2.24 m/s, 86° | - | - |
| 1778023263 | 16.67° C | 76% | 1012.2 hPa | 0 mm | 2.24 m/s, 81° | - | - |
| 1778023203 | 16.67° C | 76% | 1012.4 hPa | 0 mm | 2.24 m/s, 84° | - | - |
| 1778023143 | 16.67° C | 76% | 1012.6 hPa | 0 mm | 2.24 m/s, 85° | - | - |
| 1778023083 | 16.67° C | 76% | 1012.4 hPa | 0 mm | 2.24 m/s, 81° | - | - |
| 1778023023 | 16.67° C | 76% | 1012.6 hPa | 0 mm | 1.79 m/s, 81° | - | - |
| 1778022963 | 16.67° C | 76% | 1012.6 hPa | 0 mm | 1.79 m/s, 78° | - | - |
| 1778022903 | 16.67° C | 76% | 1012.8 hPa | 0 mm | 1.79 m/s, 76° | - | - |
| 1778022843 | 16.67° C | 76% | 1012.7 hPa | 0 mm | 1.79 m/s, 77° | - | - |
| 1778022783 | 16.67° C | 76% | 1012.5 hPa | 0 mm | 1.79 m/s, 80° | - | - |
| 1778022603 | 16.67° C | 76% | 1012.8 hPa | 0 mm | 1.79 m/s, 89° | - | - |
* Rain latest hour (hover to see other rain measurements)
** Current wind speed in m/s (hover to see current wind gust speed)